• Join FlightAware (Why Join?)
  • Login
  • US Flag 
02:18AM EDT


 

Airport Tracker/Info


-or-


 

Live Flight TrackerFlight Track Log ✈ UAL3776 ✈ 29-Apr-2013 ✈ KIAD - KRDU

Flight Track Log - Related Links

Times and Time Zones

All times are in EDT time to prevent confusion due to time zone crossing. See the UAL3776 flight status page for this flight to view local times or setup timezone preferences in your user account.

Time Position Orientation Groundspeed Altitude Reporting Facility
EDT Latitude Longitude Course Direction KTS MPH feet Rate Location/Type
03:45PM 38.9333 -77.5167 195° South 183 211 2,200  Level Potomac TRACON
03:46PM 38.8833 -77.5333 195° South 219 252 3,700 2,400 Climbing Potomac TRACON
03:47PM 38.8000 -77.5333 180° South 274 315 7,000 2,880 Climbing Potomac TRACON
03:48PM 38.7167 -77.5333 180° South 285 328 9,900 2,040 Climbing Potomac TRACON
03:49PM 38.6333 -77.5500 189° South 309 356 11,000 660 Climbing Potomac TRACON
03:50PM 38.5847 -77.5544 184° South 349 402 11,000  Level Washington Center
03:51PM 38.4867 -77.5625 184° South 363 418 11,100 1,320 Climbing Washington Center
03:52PM 38.3903 -77.5783 187° South 363 418 13,700 2,340 Climbing Washington Center
03:53PM 38.3036 -77.6475 212° Southwest 355 409 15,900 2,040 Climbing Washington Center
03:54PM 38.2211 -77.7219 215° Southwest 360 414 17,800 1,920 Climbing Washington Center
03:55PM 38.1322 -77.7986 214° Southwest 377 434 19,800 1,800 Climbing Washington Center
03:56PM 38.0389 -77.8775 214° Southwest 388 447 21,400 1,080 Climbing Washington Center
03:57PM 37.9436 -77.9536 212° Southwest 402 463 22,000 240 Climbing Washington Center
03:58PM 37.8353 -78.0475 214° Southwest 424 488 22,000  Level Washington Center
03:59PM 37.7378 -78.1283 213° Southwest 429 494 22,000  Level Washington Center
04:00PM 37.6525 -78.2042 215° Southwest 429 494 22,000  Level Washington Center
04:01PM 37.5442 -78.2975 214° Southwest 429 494 22,000  Level Washington Center
04:02PM 37.4464 -78.3778 213° Southwest 429 494 22,000  Level Washington Center
04:03PM 37.3483 -78.4603 214° Southwest 429 494 22,000  Level Washington Center
04:04PM 37.2486 -78.5400 212° Southwest 429 494 22,000  Level Washington Center
04:05PM 37.1525 -78.6225 214° Southwest 429 494 22,000  Level Washington Center
04:06PM 37.0653 -78.6919 212° Southwest 429 494 22,000 -60 Level Washington Center
04:07PM 36.9672 -78.7736 214° Southwest 429 494 21,900 -960 Descending Washington Center
04:08PM 36.8711 -78.8528 213° Southwest 429 494 20,100 -2,340 Descending Washington Center
04:09PM 36.7814 -78.9269 214° Southwest 424 488 17,300 -2,580 Descending Washington Center
04:10PM 36.6878 -78.9981 211° Southwest 384 442 15,000 -1,920 Descending Washington Center
04:11PM 36.5958 -78.9967 179° South 326 375 13,600 -1,800 Descending Washington Center
04:12PM 36.4925 -78.9661 167° South 339 390 11,300 -1,740 Descending Washington Center
04:13PM 36.4139 -78.9422 166° South 333 383 10,100 -1,140 Descending Washington Center
04:14PM 36.3361 -78.8819 148° Southeast 279 321 9,000 -1,020 Descending Washington Center
04:15PM 36.2814 -78.8308 143° Southeast 285 328 8,100 -840 Descending Washington Center
04:15PM 36.2631 -78.8147 145° Southeast 257 296 8,000 -240 Descending Washington Center
04:16PM 36.2306 -78.7822 141° Southeast 253 291 7,900 -1,020 Descending Washington Center
04:17PM 36.1733 -78.7336 146° Southeast 248 285 6,400 -960 Descending Washington Center
04:18PM 36.1225 -78.6856 143° Southeast 243 280 6,000 -780 Descending Washington Center
04:19PM 36.0694 -78.6344 142° Southeast 238 274 4,900 -1,320 Descending Washington Center
04:19PM 36.0531 -78.6261 158° South 234 269 4,300 -1,800 Descending Washington Center
04:20PM 36.0108 -78.6375 192° South 216 249 3,100 -1,200 Descending Washington Center
04:20PM 35.9936 -78.6572 223° Southwest 215 247 3,100 -540 Level Washington Center
04:21PM 35.9703 -78.6819 221° Southwest 182 209 2,600 -900 Descending Washington Center
04:21PM 35.9592 -78.6994 232° Southwest 182 209 2,200 -960 Descending Washington Center
04:22PM 35.9247 -78.7392 223° Southwest 163 188 1,400 -780 Descending Washington Center
04:23PM 35.8967 -78.7742 225° Southwest 127 146 700 -660 Descending Washington Center
04:25PM 35.8776 -78.7875 223° Southwest  Level Estimated
04:32PM 35.8776 -78.7875 223° Southwest  Level Estimated
04:33PM 35.8776 -78.7875 223° Southwest  Level Estimated